Flag for U.S.A. Weather past 2 weeks in El Monte, California, U.S.A.

Now
70 °F

Overcast.


Feels Like: 74 °F
Forecast: 66 / 81 °F
Wind: 5 mph from Southeast

Location: Fullerton Municipal Airport

Current Time: Aug 20, 2014 at 4:03:07 AM

Latest Report: Aug 20, 2014 at 2:53 AM


Visibility: 10 mi

Pressure: 29.88 "Hg

Humidity: 68%

Dew point: 59 °F

Location of El MonteLocation

Historic Weather in El Monte — Graph

°F

El Monte temperature yesterday

Maximum temperature yesterday: 81 °F (at 12:53 PM)
Minimum temperature yesterday: 70 °F (at 12:53 AM)
Average temperature yesterday: 74 °F

Past Weeks' High & Low Weather Summary

 TemperatureHumidityPressure
High95 °F (Aug 15, 3:53 PM)87% (Aug 18, 6:53 AM)30.05 "Hg (Aug 18, 6:53 AM)
Low63 °F (Aug 5, 5:53 AM)18% (Aug 16, 3:53 PM)29.78 "Hg (Aug 18, 4:53 PM)
Average75 °F62%29.92 "Hg
* Reported Aug 5 2:53 AM — Aug 20 2:53 AM, El Monte, Weather by CustomWeather, © 2014

Note: Actual official high and low records may vary slightly from our data, if they occured in-between our weather recording intervals... More about our weather records

Advertising

El Monte weather history for previous 24 hours

 ConditionsComfort  
Time TempWeatherWind HumidityBarometerVisibility
2:53 AM
Aug 20
70 °FOvercast.5 mph68%29.88 "Hg10 mi
1:53 AM69 °FOvercast.7 mph70%29.87 "Hg10 mi
12:53 AM70 °FClear.5 mph68%29.87 "Hg10 mi
11:53 PM
Aug 19
70 °FOvercast.5 mph71%29.87 "Hg10 mi
10:53 PM70 °FPassing clouds.5 mph71%29.87 "Hg10 mi
9:53 PM70 °FPassing clouds.7 mph71%29.87 "Hg10 mi
8:53 PM71 °FOvercast.7 mph68%29.86 "Hg10 mi
7:53 PM71 °FPassing clouds.6 mph71%29.84 "Hg10 mi
6:53 PM73 °FScattered clouds.7 mph64%29.83 "Hg10 mi
5:53 PM74 °FSunny.9 mph62%29.84 "Hg10 mi
4:53 PM77 °FSunny.8 mph58%29.83 "Hg10 mi
3:53 PM79 °FSunny.6 mph54%29.83 "Hg10 mi
2:53 PM79 °FSunny.9 mph56%29.84 "Hg10 mi
1:53 PM79 °FPassing clouds.12 mph54%29.85 "Hg10 mi
12:53 PM81 °FSunny.8 mph49%29.87 "Hg10 mi
11:53 AM80 °FSunny.7 mph47%29.88 "Hg10 mi
10:53 AM77 °FScattered clouds.3 mph54%29.89 "Hg10 mi
9:53 AM74 °FOvercast.8 mph57%29.88 "Hg10 mi
8:53 AM73 °FOvercast.6 mph62%29.88 "Hg10 mi
7:53 AM72 °FOvercast.5 mph64%29.87 "Hg10 mi
6:53 AM71 °FOvercast.6 mph66%29.86 "Hg10 mi
5:53 AM70 °FOvercast.No wind76%29.86 "Hg10 mi
4:53 AM71 °FOvercast.7 mph71%29.86 "Hg10 mi
Weather by CustomWeather, © 2014

See weather overviewHow to use our weather pages